GEFSSGP_con_probscp_204.txt.gz
Probability
0 0 0 0 0 0 0 0 1 2 2 1 1 1 0 2 5 6 4 7 22 34 36 35 36 35 32 25 21 19 17 17 17 15 12 8 5 3 1 1 1 3 6 6 4 2 2 3 5
0 0 0 0 0 0 0 1 2 2 1 0 0 0 1 2 5 6 5 10 24 35 37 35 36 36 32 25 21 19 17 17 17 16 13 9 6 5 4 3 2 3 5 6 5 3 2 3 4
0 0 0 0 0 0 1 2 2 1 0 0 0 0 2 4 6 7 8 14 27 37 39 37 36 36 34 29 23 20 19 18 18 19 17 12 8 7 6 5 4 4 5 6 6 5 5 5 5
0 0 0 1 1 1 2 3 2 1 1 0 0 2 5 8 9 9 11 16 27 37 41 38 37 37 37 34 28 24 22 21 21 22 21 16 12 9 7 4 4 4 5 6 8 9 9 9 9
0 0 1 2 2 3 3 3 2 2 1 0 0 3 8 11 11 10 10 14 23 35 39 39 38 38 39 38 34 29 26 26 26 25 22 20 17 14 9 5 3 3 5 7 10 12 11 9 8
0 0 1 2 3 3 3 2 1 1 1 0 0 4 8 11 11 10 9 10 17 28 36 39 40 40 41 41 38 34 31 30 30 27 25 23 22 20 15 10 7 5 5 8 11 13 11 9 7
0 0 1 2 3 3 3 1 1 2 2 1 1 4 9 12 12 11 9 8 13 24 34 37 39 40 42 43 41 37 34 34 34 31 27 26 25 23 19 15 12 9 8 8 11 13 13 11 9
0 0 0 1 2 2 2 1 2 3 3 3 3 6 11 15 15 13 10 9 13 22 31 35 37 39 40 41 40 38 37 39 40 36 30 26 24 23 21 20 20 17 13 11 12 14 15 14 11
1 1 0 0 1 1 1 0 1 3 4 5 7 9 12 15 17 16 14 14 18 24 29 33 35 36 36 36 37 38 39 42 42 38 32 27 23 22 22 25 27 26 21 17 16 17 18 17 13
0 0 0 0 0 0 0 0 1 3 4 6 9 11 11 13 16 18 18 20 24 27 30 32 32 33 32 32 35 37 39 42 41 37 35 33 28 24 23 28 34 33 27 23 22 22 21 18 16
0 0 0 0 0 0 0 0 1 3 4 5 9 12 12 13 15 18 19 21 24 27 29 30 32 33 33 33 36 37 39 42 41 40 41 41 37 30 27 31 36 35 31 28 26 24 22 19 17
0 0 0 0 0 0 0 0 1 3 5 6 9 14 16 16 15 16 18 20 23 26 28 30 35 38 39 39 39 38 38 40 43 48 49 48 44 36 31 33 35 33 31 27 25 23 21 18 16
0 0 0 0 0 0 0 0 1 4 6 7 10 15 18 18 17 19 21 23 25 28 30 33 37 42 44 46 47 44 41 41 46 54 56 50 43 36 32 33 34 31 27 25 23 22 20 18 16
0 0 0 0 0 0 0 0 2 5 7 8 10 14 17 18 19 23 24 26 29 31 33 35 39 42 43 47 50 47 44 45 48 54 55 49 41 36 35 36 36 32 26 24 25 24 21 19 18
0 0 0 0 0 0 0 1 4 6 8 9 11 15 18 20 23 26 27 29 32 34 36 35 35 38 39 41 43 43 43 45 47 49 50 47 41 37 37 39 40 36 29 26 29 30 25 21 20
0 0 0 0 0 0 0 3 7 9 10 12 14 17 21 24 25 26 28 30 32 36 38 35 32 34 36 37 36 36 37 38 39 41 43 43 40 36 35 37 38 37 32 29 29 30 26 22 21
0 0 0 0 0 0 1 4 7 8 10 13 16 17 21 26 27 27 27 27 30 35 38 36 35 34 36 36 35 33 33 31 30 31 34 35 32 29 29 30 32 32 31 29 27 26 23 19 18
0 0 0 0 0 1 2 4 6 7 10 13 16 17 22 26 28 27 25 24 26 32 35 36 36 36 37 37 35 32 29 27 25 26 27 25 23 21 22 23 26 28 28 27 26 23 20 17 15
0 0 0 0 0 1 1 2 5 9 11 12 14 17 22 25 25 25 25 23 24 28 34 37 37 37 38 36 33 30 27 24 24 24 22 20 18 17 17 19 23 25 24 24 25 22 19 15 14
0 0 0 0 0 0 0 1 5 9 11 9 10 13 17 19 21 23 24 23 23 27 33 38 40 39 37 35 32 29 27 25 23 21 20 18 16 15 15 17 21 21 20 21 23 21 17 14 13
0 0 0 0 0 0 0 1 6 10 9 7 6 7 11 14 17 20 22 23 23 25 30 36 40 41 38 33 28 26 24 22 19 18 18 17 14 13 15 17 18 18 18 19 21 19 16 14 13
0 0 0 0 0 0 0 1 6 10 9 6 5 6 9 12 15 18 20 20 20 21 25 31 35 37 35 30 24 21 19 16 14 16 18 18 15 14 16 18 17 16 17 19 19 18 17 15 13
0 0 0 0 0 0 0 1 5 10 9 6 5 7 9 12 14 15 16 17 16 18 22 26 29 30 30 26 21 18 14 11 11 14 18 20 18 16 15 16 16 16 17 19 19 19 18 17 15
0 0 0 0 0 0 0 1 5 9 9 6 5 7 9 11 13 14 15 16 16 17 19 22 25 26 25 21 17 14 10 8 9 11 14 15 15 14 13 12 14 16 18 21 22 22 20 17 15
0 0 0 0 0 0 1 3 6 8 7 6 6 8 9 10 13 15 15 16 16 16 16 18 21 22 19 16 13 10 8 7 7 7 8 8 9 11 11 9 11 14 16 19 21 23 21 16 12
0 0 0 0 0 0 1 3 5 6 5 5 7 8 8 10 12 14 15 16 16 14 12 13 16 16 14 12 11 10 9 8 8 7 5 4 5 7 8 9 10 12 12 14 17 20 18 12 9
0 0 0 0 0 0 0 2 4 4 4 5 6 7 7 9 11 11 13 15 16 14 12 11 12 12 12 10 9 9 10 9 9 7 6 5 4 4 6 9 11 10 10 11 14 15 13 9 8
0 0 0 0 0 0 0 2 4 5 4 4 5 5 7 9 10 10 10 13 16 14 12 10 10 10 9 8 7 8 9 10 9 9 8 8 6 5 6 9 10 9 8 11 11 10 8 7 7
0 0 0 0 0 0 0 1 3 6 6 5 4 5 6 9 10 9 8 11 13 12 11 9 9 8 7 7 7 7 7 9 9 9 9 9 9 8 7 8 7 5 5 7 6 5 5 5 5
0 0 0 0 0 0 0 0 2 6 6 5 4 5 6 10 11 9 9 11 11 10 9 9 8 7 7 7 7 7 7 8 9 9 9 10 10 9 8 7 5 2 2 2 3 3 4 4 3

GEFSSGP_con_probscp_210.txt.gz
Probability
0 0 0 0 0 0 0 0 0 0 0 0 1 2 4 5 6 5 4 9 17 20 21 26 32 36 35 33 35 35 31 25 18 14 14 15 15 15 13 9 5 4 3 4 5 8 7 4 3
0 0 0 0 0 0 0 0 0 0 0 0 1 3 4 6 7 7 7 11 17 20 21 26 33 37 35 34 34 34 31 25 19 15 13 13 13 14 12 9 5 4 3 3 5 8 8 5 4
0 0 0 0 0 0 0 0 0 0 0 0 2 4 6 7 7 8 9 13 17 20 20 27 36 41 39 36 34 33 31 26 20 16 13 13 14 13 11 8 6 3 2 2 3 6 7 7 7
0 0 0 1 1 1 1 0 0 0 0 0 2 4 6 7 8 9 13 17 20 20 20 27 39 45 44 40 36 33 30 26 21 18 14 13 14 13 10 8 5 4 3 2 2 3 6 8 9
0 0 1 2 2 2 2 1 0 0 0 0 2 3 5 7 10 15 18 20 21 21 21 26 36 42 43 41 38 34 30 26 23 21 16 13 12 11 10 7 5 4 4 3 2 2 4 7 9
0 1 2 3 3 3 3 1 0 0 0 0 1 2 4 7 13 18 21 22 22 23 22 23 29 35 37 37 37 35 31 27 25 23 18 12 9 9 9 7 6 5 5 4 3 1 2 6 8
0 1 2 3 3 3 2 1 1 0 0 1 1 2 4 7 11 16 20 23 25 24 21 19 21 25 28 32 34 34 32 30 28 25 20 14 9 8 9 10 8 7 5 4 2 1 1 3 6
0 0 1 2 2 2 1 1 1 1 2 2 2 4 7 9 10 14 18 21 24 23 19 16 15 16 20 25 28 28 28 29 29 26 22 17 13 11 12 14 13 11 8 6 4 2 2 2 2
0 0 0 1 1 1 0 0 1 2 3 4 5 7 10 11 12 13 15 16 18 17 14 12 13 12 13 17 19 20 22 24 24 24 22 20 17 16 16 17 17 15 13 10 8 6 5 4 2
0 0 0 0 0 0 0 0 1 3 5 6 8 11 14 14 13 13 13 12 12 11 9 10 13 12 10 12 14 16 18 20 21 21 20 19 18 18 18 17 16 16 15 14 11 10 9 7 5
1 0 0 0 0 0 0 0 2 4 5 7 10 14 15 14 14 14 15 13 11 9 8 8 10 10 10 10 12 14 17 20 21 21 20 19 18 19 19 17 15 14 15 15 12 10 11 10 8
1 0 0 0 0 0 0 0 1 3 5 8 11 15 16 15 14 16 18 17 14 11 8 6 6 7 8 9 10 11 14 17 18 20 20 20 20 21 21 18 15 15 16 15 13 11 12 12 10
1 0 0 0 0 0 0 1 2 3 5 9 13 17 18 16 16 17 19 19 15 11 8 5 5 6 8 8 7 7 9 11 13 16 18 18 20 21 20 18 15 16 17 14 12 11 11 11 9
0 0 0 0 0 0 1 2 4 4 7 10 13 17 19 20 19 19 18 17 14 10 8 7 6 8 8 6 4 5 7 8 9 11 12 12 13 15 14 14 13 14 13 12 10 8 7 7 6
0 0 0 0 0 0 1 2 4 6 8 9 11 15 20 23 22 20 18 16 13 10 9 9 9 9 8 6 4 5 7 7 6 7 7 7 8 7 7 7 9 9 9 8 8 6 4 4 4
0 0 0 0 0 0 1 2 3 7 9 10 13 16 19 22 23 22 19 16 14 12 11 11 12 12 10 8 6 7 7 6 5 5 5 6 5 5 5 4 4 6 5 5 5 4 5 4 3
0 0 0 0 0 0 1 2 3 6 9 11 13 17 18 18 20 21 19 16 14 12 10 9 12 13 11 9 8 8 7 6 5 6 6 5 4 4 4 2 1 2 3 2 2 4 5 4 3
0 0 0 0 0 0 0 1 2 6 9 11 12 15 16 16 18 19 18 16 13 10 7 7 9 11 10 9 9 9 9 8 7 7 5 3 2 3 2 1 0 1 2 2 1 3 4 3 2
0 0 0 0 0 0 0 1 2 4 7 9 10 12 13 14 16 18 17 14 12 8 5 5 6 7 8 9 9 10 10 9 8 7 5 2 1 1 1 1 1 1 2 2 2 2 2 1 1
0 0 0 0 0 0 1 2 3 4 6 8 8 9 10 12 15 17 16 13 10 7 4 4 4 4 5 7 8 9 9 8 7 6 5 4 2 1 1 2 2 1 1 1 2 2 1 0 0
0 0 0 0 0 0 1 3 5 5 5 5 5 6 7 9 13 16 16 14 11 6 5 5 5 4 4 5 6 7 7 7 6 4 4 5 4 2 1 1 1 0 0 0 2 3 2 1 0
0 0 0 0 0 0 1 2 4 5 5 4 3 4 5 8 12 15 15 14 10 7 6 6 6 5 4 3 4 5 5 5 4 3 3 4 5 3 1 0 0 0 0 0 1 2 2 1 0
0 0 0 0 0 0 0 0 1 2 3 3 2 3 5 7 10 12 13 11 8 7 7 7 6 4 3 3 3 3 2 3 3 2 2 3 4 3 1 0 0 0 0 0 0 1 1 0 0
0 0 0 0 0 0 0 0 0 0 1 1 1 3 5 5 6 8 10 10 8 8 8 7 6 4 3 2 1 1 0 1 1 1 1 1 3 3 2 0 0 0 0 0 0 0 0 0 0
0 0 0 0 0 0 0 0 0 0 0 0 1 3 3 3 3 5 8 9 8 8 8 7 5 3 2 1 0 0 0 0 0 0 0 1 2 2 1 0 0 0 0 0 0 0 0 0 0
0 0 0 0 0 0 0 0 0 0 1 1 2 3 2 2 2 4 7 9 9 8 8 7 3 1 1 0 0 0 0 0 0 0 0 0 1 1 0 0 0 0 0 0 0 0 0 0 0
0 0 0 0 0 0 0 0 0 1 2 3 4 2 1 1 1 3 6 9 9 7 6 4 2 1 0 0 0 0 0 0 0 0 0 0 0 0 0 0 0 0 0 0 0 0 0 0 0
0 0 0 0 0 0 0 0 0 1 2 3 3 1 0 1 2 3 6 9 9 7 4 3 2 1 0 0 0 0 0 0 0 0 0 0 0 0 0 0 0 0 0 0 0 0 0 0 0
0 0 0 0 0 0 0 0 0 1 1 2 2 1 2 3 3 3 5 7 7 5 3 3 3 2 0 0 0 0 0 0 0 0 0 0 0 0 0 0 0 0 0 0 0 0 0 0 0
0 0 0 0 0 0 0 0 1 2 2 1 2 2 3 3 2 2 4 6 6 4 3 4 3 2 1 0 0 0 0 0 0 0 0 0 0 0 0 0 0 0 0 0 0 0 0 0 0

GEFSSGP_con_probscp_216.txt.gz
Probability
0 0 0 0 0 0 0 0 0 0 0 0 1 3 6 8 9 8 6 6 13 22 27 30 31 32 32 33 34 35 34 34 36 35 32 27 21 14 8 7 8 7 5 4 5 5 5 4 4
0 0 0 0 0 0 0 0 0 0 0 0 0 2 4 6 8 8 8 9 16 23 27 30 32 32 33 35 36 35 34 35 36 35 32 28 23 16 11 8 8 6 5 4 3 3 3 4 5
0 0 0 0 0 0 0 0 0 0 0 0 0 1 2 4 7 9 11 15 20 24 26 28 31 33 34 37 38 37 35 34 34 32 30 29 25 19 14 10 7 5 5 3 1 1 1 3 4
0 0 0 0 0 0 0 0 0 0 0 0 0 0 1 2 5 9 14 20 24 25 24 26 29 31 32 36 39 38 35 34 32 30 29 29 26 21 17 11 6 4 4 3 1 0 0 1 2
0 0 0 1 2 2 1 1 0 0 0 0 0 0 1 2 6 11 16 19 22 22 20 22 26 29 30 34 37 37 35 36 35 32 30 29 26 22 17 12 7 4 3 1 0 0 0 1 2
0 0 1 2 3 2 2 1 0 0 0 0 0 1 3 5 9 13 15 15 17 17 15 16 21 26 29 31 33 33 34 36 35 33 30 27 25 23 19 14 10 6 3 1 0 0 1 3 4
0 0 1 2 2 1 1 1 1 0 0 0 1 3 5 8 12 15 14 14 14 14 13 14 17 21 24 26 29 30 29 29 29 30 29 26 23 21 19 17 14 11 6 3 1 1 3 5 5
0 0 1 1 1 0 0 0 0 0 0 0 1 3 6 10 15 17 16 15 15 13 11 12 15 16 17 19 21 22 21 20 21 24 28 27 23 20 18 17 16 13 9 5 3 4 5 6 6
0 1 1 1 0 0 0 0 0 0 0 0 1 3 8 13 16 18 17 16 15 12 8 9 12 13 14 14 14 14 15 16 18 20 24 27 25 21 17 15 15 13 10 6 4 6 8 8 7
0 1 1 1 0 0 0 0 0 0 0 0 1 4 9 12 14 15 15 14 13 10 6 5 7 10 12 12 10 10 12 16 18 19 21 24 26 24 19 17 15 14 10 7 6 7 8 8 9
0 0 0 0 0 0 0 0 0 0 0 0 2 6 9 11 11 11 12 11 10 8 5 4 5 7 9 9 8 9 13 17 19 20 21 22 23 25 24 21 19 17 14 13 12 10 8 8 10
0 0 0 0 0 0 0 0 0 0 0 2 5 8 10 10 9 9 9 9 9 8 6 4 4 5 5 5 5 8 11 15 17 19 20 20 21 22 23 22 21 19 18 19 19 16 12 10 10
0 0 0 0 0 0 0 0 0 0 1 3 7 9 9 10 10 9 8 8 9 8 5 3 3 4 3 2 2 4 7 11 12 13 16 18 19 19 18 19 19 19 19 21 20 17 14 12 11
0 0 0 0 0 0 0 0 1 1 2 5 7 8 8 9 10 8 7 6 7 6 4 2 2 3 3 1 1 2 4 6 7 8 10 14 16 16 15 16 17 16 16 17 18 16 13 11 11
0 0 0 0 0 0 0 0 1 1 2 5 7 7 7 8 8 8 6 5 5 4 3 2 1 1 1 0 0 1 3 4 5 6 7 9 10 10 12 13 14 14 15 16 17 15 11 8 7
0 0 0 0 0 0 0 1 1 1 2 5 5 6 7 7 6 6 6 5 4 3 2 1 0 0 0 0 1 2 3 3 3 4 5 5 6 7 8 8 10 13 15 17 17 15 9 5 5
0 0 0 0 0 0 0 1 2 2 3 5 5 5 6 6 5 4 4 4 4 4 3 2 1 0 0 0 1 3 3 2 3 3 4 3 4 5 6 6 6 9 14 15 14 11 7 4 3
0 0 0 0 0 0 0 1 2 3 4 4 4 5 6 5 4 4 4 4 4 5 5 3 1 0 0 0 1 3 3 3 3 3 3 3 3 4 5 4 3 5 7 8 8 6 4 2 1
0 0 0 0 0 0 0 0 2 3 4 3 3 4 5 5 5 6 6 6 6 6 5 3 1 0 0 0 1 3 3 3 4 3 4 4 3 2 2 2 2 2 2 2 3 3 2 0 0
0 0 0 0 0 0 0 0 1 2 3 3 3 3 3 4 6 7 7 8 8 6 5 3 1 0 0 1 2 3 3 3 3 3 3 3 1 1 1 2 2 1 0 0 1 2 2 0 0
0 0 0 0 0 0 0 0 0 1 2 2 2 2 1 2 6 8 8 8 9 8 5 3 1 0 1 2 3 3 3 2 3 3 2 1 0 0 1 1 1 1 0 0 1 1 1 1 0
0 0 0 0 0 0 0 0 0 1 1 1 1 1 0 1 4 7 8 8 9 8 6 3 1 0 1 2 3 3 3 3 2 2 1 0 0 0 0 0 0 0 0 0 0 0 1 1 1
0 0 0 0 0 0 0 0 0 1 0 0 0 0 0 0 2 5 7 7 7 7 6 4 1 0 1 2 3 3 3 3 1 1 0 0 0 0 0 0 0 0 0 0 0 0 1 2 2
0 0 0 0 0 0 0 0 0 0 0 0 0 0 0 0 0 2 5 6 6 6 6 4 1 0 1 2 2 2 2 2 1 0 0 0 0 0 0 0 0 0 0 0 0 0 1 2 2
0 0 0 0 0 0 0 0 0 0 1 1 1 0 0 0 0 2 5 6 6 5 5 5 2 0 0 1 1 1 1 1 0 0 0 0 0 0 0 0 0 1 0 0 0 0 1 1 1
0 0 0 0 0 0 0 0 0 0 1 2 2 1 0 1 1 2 5 6 5 5 6 6 4 1 0 0 0 0 0 0 0 0 0 0 0 0 0 0 0 0 0 0 0 0 0 0 0
0 0 0 0 0 0 0 0 0 0 1 1 1 1 1 2 2 2 3 4 5 5 7 7 5 1 0 0 0 0 0 0 0 0 0 0 0 0 0 0 0 0 0 0 0 0 0 0 0
0 0 0 0 0 0 0 0 0 0 0 0 0 0 1 2 2 1 1 3 5 6 7 6 3 1 0 0 0 0 0 0 0 0 0 0 0 0 0 0 0 0 0 0 0 0 0 0 0
0 0 0 0 0 0 0 0 0 0 0 0 0 0 2 3 1 0 0 2 4 6 5 4 2 1 0 0 0 0 0 0 0 0 0 0 0 0 0 0 0 0 0 0 0 0 0 0 0
0 0 0 0 0 0 0 0 0 0 0 0 0 0 2 3 1 0 0 1 3 4 4 4 3 2 1 0 0 0 0 0 0 0 0 0 0 0 0 0 0 0 0 0 0 0 0 0 0

GEFSSGP_con_probscp_222.txt.gz
Probability
0 0 0 0 0 0 0 0 0 0 0 0 0 0 1 1 1 4 7 6 6 11 15 20 22 23 22 20 23 28 31 31 26 22 21 22 21 20 18 15 10 7 5 5 5 7 9 8 8
0 0 0 0 0 0 0 0 0 0 0 0 1 1 2 1 2 4 5 5 7 10 15 19 22 22 21 21 24 28 31 32 31 28 24 22 21 21 20 17 13 8 5 5 5 6 7 8 9
0 0 0 0 0 0 0 0 0 0 0 1 2 3 2 1 1 3 4 6 8 10 13 17 20 20 20 22 25 29 31 33 33 31 28 24 21 20 19 17 13 9 6 5 6 6 6 7 8
0 0 0 0 0 0 0 0 0 1 1 2 4 4 3 1 1 3 5 7 9 11 12 14 17 18 19 21 25 28 30 32 32 32 31 28 24 20 18 15 12 9 8 6 6 5 5 5 5
0 0 0 0 0 0 0 0 1 2 3 3 4 5 4 2 2 4 6 7 9 11 11 14 18 20 20 21 23 26 27 30 32 33 33 30 24 20 17 13 10 8 8 7 6 6 5 5 5
0 0 0 0 0 1 0 0 1 2 3 3 4 6 6 4 4 5 6 7 8 10 11 13 17 20 20 20 21 22 23 26 30 31 32 29 24 18 14 11 8 6 6 7 7 6 6 7 8
0 0 0 0 0 0 0 0 1 2 3 4 4 6 7 8 7 7 7 6 7 9 11 12 13 15 17 18 19 20 19 21 23 24 25 25 21 16 14 12 9 6 5 5 6 7 7 8 9
1 0 0 0 0 0 0 0 1 2 3 5 6 7 9 12 11 10 10 8 7 8 10 10 9 9 11 15 16 17 15 14 14 14 15 16 15 13 13 13 12 9 6 5 6 7 8 8 8
1 0 0 0 0 0 0 0 1 2 4 6 8 9 12 15 14 12 13 12 10 9 9 8 7 7 9 12 13 13 11 9 8 8 9 10 10 12 13 13 13 11 9 8 6 6 7 8 7
1 0 0 0 0 0 0 0 2 3 5 8 10 12 14 18 18 13 12 12 11 10 8 7 6 7 8 10 12 12 10 9 8 7 9 12 14 15 15 15 15 15 13 11 7 5 5 7 7
0 0 0 0 0 0 1 1 2 3 5 8 10 14 17 20 18 12 8 8 9 9 8 6 6 6 8 10 12 13 13 14 13 13 15 18 22 23 22 21 22 22 19 16 13 9 7 7 8
0 0 0 0 0 1 2 2 3 3 5 7 10 15 19 18 14 10 7 7 9 9 7 6 5 6 8 9 10 12 13 15 16 17 17 20 25 28 28 27 26 27 25 22 20 16 12 9 9
0 0 0 0 1 2 3 3 3 3 4 6 10 15 17 15 12 9 8 11 12 11 8 6 5 6 7 9 10 10 10 11 13 14 15 16 20 24 26 26 26 26 24 23 21 19 15 13 13
0 0 0 0 1 2 3 3 3 3 4 6 9 13 14 13 12 11 11 14 14 11 8 7 7 6 7 9 10 9 8 9 11 11 12 12 13 16 19 21 22 22 20 19 18 17 17 17 17
0 0 0 0 0 1 2 3 3 3 4 6 8 11 13 13 12 12 13 15 14 12 9 7 7 8 9 9 9 8 8 8 10 10 10 9 10 13 15 16 17 18 17 17 17 16 17 17 16
0 0 0 0 0 0 1 3 4 4 5 6 7 8 10 11 11 12 14 15 15 15 13 10 9 11 13 12 10 8 7 8 8 8 8 7 8 10 12 13 14 15 15 15 16 16 15 14 13
0 0 0 0 0 0 1 3 5 6 6 6 7 7 8 8 9 10 12 13 14 15 16 15 14 15 16 16 12 9 8 8 8 7 7 7 8 9 10 11 11 11 13 14 15 16 16 14 13
0 0 0 0 0 0 1 3 6 6 6 6 7 8 8 8 8 10 11 12 12 14 17 17 17 18 18 17 15 12 10 9 7 6 6 8 9 9 9 10 10 10 11 13 16 17 17 16 16
0 0 0 0 0 0 1 3 6 6 6 6 6 7 9 10 11 10 10 10 12 15 17 17 17 18 18 17 16 14 12 9 6 5 6 8 9 8 9 9 10 10 11 12 14 16 16 16 16
0 0 0 0 0 1 2 3 5 6 6 6 6 6 8 11 12 12 11 12 12 14 16 17 17 16 16 17 18 15 11 8 5 5 6 7 8 8 7 8 9 9 10 10 11 13 14 14 14
0 0 0 0 0 1 1 2 4 6 6 7 7 6 7 9 10 12 14 14 14 13 14 16 17 16 16 18 18 15 11 7 6 6 6 7 7 7 7 7 7 8 8 8 8 10 11 12 12
0 0 0 0 0 0 0 1 3 5 6 7 8 7 6 7 10 13 15 16 15 14 13 15 17 18 19 19 17 15 13 10 8 7 7 8 7 6 6 6 6 7 7 7 7 8 9 11 12
0 0 0 0 0 0 0 0 2 4 5 6 7 7 7 8 10 13 15 16 16 15 15 16 17 19 19 18 17 16 15 13 10 9 8 8 8 7 6 6 6 6 6 7 7 7 8 8 9
0 0 0 0 0 0 0 0 1 1 2 4 6 7 8 10 11 12 14 16 16 16 16 17 18 18 17 16 16 17 16 14 12 11 10 9 9 8 7 5 5 5 6 6 6 7 7 7 8
0 0 0 0 0 0 0 1 1 1 1 2 5 6 8 10 11 12 14 16 16 16 17 18 19 18 16 14 14 15 15 14 12 11 10 10 9 9 8 6 4 5 5 6 6 6 7 8 9
0 0 0 0 0 0 0 1 1 1 2 3 4 5 7 10 12 13 14 16 16 17 17 19 19 19 16 14 13 13 12 11 10 9 9 9 8 8 7 6 4 4 5 5 5 6 7 9 10
0 0 0 0 0 0 0 1 1 1 2 3 4 4 6 9 11 12 13 15 16 17 17 18 19 19 17 15 13 11 10 9 7 7 7 7 6 6 5 4 4 4 4 4 4 4 6 8 9
0 0 0 0 0 0 0 1 1 1 1 2 4 5 5 7 9 10 12 15 17 17 17 18 19 18 16 14 12 10 10 8 7 6 6 6 5 5 4 4 4 4 4 4 4 3 4 5 6
0 0 0 0 0 0 0 1 2 2 2 3 4 4 4 6 8 10 12 15 18 18 18 18 18 16 13 11 10 10 9 8 7 7 7 7 7 7 6 6 5 4 4 4 5 4 3 3 2
0 0 0 0 0 0 0 1 2 3 3 3 3 3 4 7 9 10 12 16 18 18 16 16 15 13 11 10 10 10 9 8 8 9 9 9 9 9 9 8 6 5 5 5 6 5 4 1 0

GEFSSGP_con_probscp_228.txt.gz
Probability
0 0 0 1 2 2 1 0 0 0 0 0 0 0 0 1 2 6 9 15 22 24 22 20 20 19 15 12 11 11 11 11 8 5 4 3 3 6 9 8 6 4 4 3 3 4 4 3 2
0 0 0 0 1 1 0 0 0 0 0 0 0 0 1 3 4 6 10 16 22 24 23 22 22 20 16 13 11 11 11 9 7 5 5 4 3 4 6 6 4 3 4 4 4 4 3 2 2
0 0 0 0 0 0 0 0 0 0 0 0 0 1 3 5 6 7 9 14 20 24 24 24 25 22 17 14 13 12 11 8 5 4 5 5 3 3 4 5 4 4 4 4 4 3 2 2 2
0 0 0 0 0 0 1 1 0 0 0 1 1 3 5 7 7 7 8 11 18 23 23 24 27 24 19 16 15 14 12 9 6 4 4 6 6 6 6 6 6 5 4 3 3 2 2 3 4
0 0 0 0 0 1 2 2 1 1 1 3 3 4 6 7 7 7 8 10 15 19 20 21 26 28 23 19 18 17 15 13 9 6 6 9 12 12 12 12 11 8 6 4 2 2 3 4 5
0 0 0 0 1 2 2 2 2 3 3 4 4 6 7 7 8 10 10 10 11 15 17 19 22 26 23 20 18 17 17 16 13 11 11 14 16 17 17 16 13 10 7 5 3 3 4 5 6
0 0 0 1 2 2 2 2 3 4 3 3 4 6 8 10 11 13 13 11 10 14 17 16 15 17 18 17 17 17 18 18 17 15 15 15 16 16 15 13 11 8 5 4 4 5 5 5 6
0 0 0 1 1 1 1 2 3 3 2 3 5 7 10 12 13 15 15 13 13 16 18 15 11 10 12 15 18 19 20 22 21 17 14 13 12 11 10 9 10 8 5 2 3 5 6 7 8
0 0 0 0 0 0 0 1 1 1 3 5 6 8 10 11 11 12 14 14 15 17 18 16 11 10 11 15 19 20 21 23 22 17 14 14 12 9 8 10 15 15 9 4 3 5 6 8 9
0 0 0 0 0 0 0 0 0 1 4 6 8 11 12 11 10 10 11 15 17 18 17 14 12 12 13 16 18 18 19 20 18 16 17 20 19 14 12 17 23 22 14 7 5 6 6 8 10
0 0 0 0 0 0 0 0 0 2 5 8 10 13 14 13 11 9 10 15 18 18 16 13 14 14 13 16 19 17 17 16 14 15 19 23 25 23 20 23 27 26 19 13 11 11 9 8 9
0 0 0 0 0 0 0 0 1 3 6 8 10 11 13 14 12 10 11 16 19 20 19 18 18 17 16 18 20 19 16 14 14 17 21 24 26 27 26 25 26 25 22 19 18 15 11 9 10
0 0 0 0 0 0 0 1 1 4 6 8 9 10 11 13 14 13 15 20 24 26 26 25 24 22 21 21 19 18 16 14 16 20 23 23 23 25 25 25 25 23 22 22 20 16 13 12 12
0 0 0 0 0 0 0 1 2 4 7 8 8 9 10 12 14 17 21 29 34 34 33 30 25 24 24 21 17 16 15 16 18 21 21 20 19 20 21 22 22 22 22 22 19 17 16 16 16
0 0 0 0 0 0 0 1 3 6 9 9 8 8 9 10 13 20 29 37 42 42 39 32 25 23 25 22 18 17 17 18 20 21 20 19 18 18 19 17 16 18 20 20 19 19 19 19 18
0 0 0 0 0 0 0 2 6 9 11 9 7 7 9 11 15 24 34 41 44 43 39 33 26 26 28 26 23 22 22 22 22 22 22 21 20 19 18 15 13 15 17 17 17 18 19 19 17
0 0 0 0 0 0 0 4 8 11 10 9 9 10 13 16 20 26 34 40 41 39 37 34 33 33 32 30 28 27 27 27 26 24 23 23 22 20 17 15 14 15 16 15 14 16 18 17 16
0 0 0 0 0 0 2 6 10 10 9 10 13 15 19 21 25 29 35 38 38 37 37 37 38 38 36 32 31 29 29 28 26 23 22 24 24 20 17 15 13 14 16 16 16 16 16 15 15
0 0 0 0 0 1 4 7 9 9 9 11 15 19 23 25 29 33 37 38 37 37 38 37 37 37 36 33 30 28 28 27 24 20 19 23 25 22 17 13 11 12 15 17 17 15 13 13 13
0 0 0 0 1 3 5 6 7 8 9 10 15 20 24 28 32 35 37 37 35 35 35 35 34 34 32 30 28 27 26 25 22 19 18 20 23 21 15 12 12 13 14 15 14 12 10 8 8
0 0 0 0 1 3 5 6 7 7 8 9 12 16 21 26 32 33 34 33 31 30 31 32 33 33 31 28 26 25 24 22 20 19 18 18 19 17 13 11 12 13 13 13 13 11 8 6 4
0 0 0 0 1 2 4 5 6 6 6 7 7 10 14 20 26 29 29 29 27 26 27 30 33 34 32 29 26 25 23 21 19 18 17 17 15 13 11 11 12 12 12 11 11 10 8 5 4
0 0 0 0 1 1 2 3 4 6 8 7 5 5 8 12 19 23 24 24 24 25 25 26 31 33 32 29 27 26 23 21 19 18 17 15 14 12 11 11 10 10 10 10 9 9 7 5 4
0 0 0 0 0 1 2 3 4 7 9 8 6 5 6 10 14 17 19 20 22 23 23 23 26 29 29 27 26 25 23 20 19 18 15 12 11 12 10 10 10 10 10 10 8 8 7 6 5
0 0 0 0 0 0 2 5 7 8 7 7 6 7 8 10 12 14 16 19 21 21 21 22 23 24 24 22 23 24 22 19 18 17 13 9 9 11 10 10 10 11 11 10 9 9 9 8 7
0 0 0 0 0 0 3 8 10 8 6 5 6 9 11 12 13 14 16 19 20 19 20 20 21 22 21 19 21 22 21 18 18 17 12 8 8 9 10 10 10 10 9 8 8 8 8 8 7
0 0 0 0 0 0 3 9 12 10 7 6 7 10 13 14 14 15 17 19 19 18 19 19 20 22 21 19 20 20 18 15 15 15 11 7 7 8 9 10 10 8 6 6 5 6 6 6 6
0 0 0 0 0 0 2 7 10 11 9 8 8 10 12 13 13 14 17 18 18 18 19 19 20 20 20 19 18 16 14 12 12 12 11 9 9 9 9 10 9 7 5 5 4 4 5 5 4
0 0 0 0 0 0 2 6 10 11 10 10 9 8 9 8 9 11 14 17 18 18 19 18 18 18 17 17 16 14 12 11 11 11 11 12 12 11 10 9 8 6 6 6 5 5 5 5 4
0 0 0 1 1 1 2 7 11 11 11 11 8 6 6 5 5 7 11 15 17 17 17 17 18 17 16 16 16 14 13 11 11 11 11 12 13 11 10 9 7 6 6 6 6 6 6 6 5

GEFSSGP_con_probscp_234.txt.gz
Probability
0 0 0 0 0 0 0 0 0 0 0 0 0 4 9 9 5 2 2 5 10 12 14 18 21 21 19 17 16 17 19 19 18 17 15 13 13 12 10 9 9 10 8 6 6 5 4 4 3
0 0 0 0 0 0 0 0 0 0 0 0 1 4 9 9 6 4 3 5 9 11 12 17 20 21 21 20 20 20 20 19 17 15 14 13 12 11 10 9 9 9 8 8 6 5 5 4 4
0 0 0 0 0 0 0 0 1 1 1 1 2 5 9 9 7 5 5 7 8 9 11 15 20 21 20 21 22 22 20 18 15 13 12 12 10 8 8 9 9 9 9 9 6 5 5 5 5
0 0 0 0 0 0 0 1 3 5 4 3 5 7 9 10 9 8 8 8 8 8 9 14 21 23 21 21 20 19 17 15 13 11 11 9 7 5 6 8 9 9 9 7 5 3 3 4 5
0 0 0 0 0 1 1 3 5 6 6 5 6 8 10 13 14 13 10 9 8 8 9 15 23 27 25 21 19 18 15 12 12 11 8 7 5 5 6 8 8 7 7 6 3 2 2 3 4
0 0 0 0 1 2 3 3 5 5 6 6 6 7 10 14 16 15 11 9 9 10 12 15 21 26 25 20 16 15 14 14 14 12 9 7 5 5 6 8 7 6 6 5 3 3 2 2 3
0 0 0 0 1 2 3 3 3 5 6 6 5 6 8 10 14 14 13 11 11 12 14 13 13 16 18 16 11 11 13 14 14 14 12 9 6 4 6 7 7 5 5 4 3 4 4 3 3
0 0 0 0 0 1 2 3 4 5 6 6 5 5 5 7 11 15 15 13 11 11 11 10 7 7 9 10 9 8 9 10 11 12 11 9 6 4 6 6 5 4 3 3 4 5 6 5 5
0 0 0 0 0 0 1 2 4 6 6 6 4 3 3 7 13 16 16 12 9 7 5 5 4 5 7 8 8 8 8 9 9 9 9 9 6 3 4 7 7 5 5 4 5 6 6 6 6
0 0 0 0 0 0 1 2 4 5 6 5 3 3 5 10 14 15 14 12 8 3 1 2 3 5 7 8 9 8 8 8 8 9 9 7 6 4 4 7 9 8 8 8 7 5 5 5 5
0 0 0 0 0 1 2 3 3 3 3 3 2 3 6 11 14 13 12 12 10 4 1 1 3 4 5 7 8 8 7 7 7 8 8 6 6 6 5 6 8 10 10 10 8 6 5 5 5
0 0 0 0 0 1 3 3 2 2 2 3 3 4 6 9 12 13 11 11 11 8 4 3 3 3 4 5 6 6 6 6 6 6 5 6 6 6 5 4 6 9 11 11 10 8 7 6 5
0 0 0 0 0 2 3 3 3 4 5 5 5 4 5 7 10 11 10 10 11 10 7 5 4 3 3 3 4 4 5 5 4 3 4 5 5 4 3 4 5 7 10 12 11 9 7 6 6
0 0 0 0 0 2 4 5 6 7 8 8 7 5 4 5 7 8 10 13 14 13 9 5 4 4 4 4 4 4 3 3 2 1 2 4 3 2 2 5 6 7 8 10 10 8 7 6 6
0 0 0 0 0 1 4 6 8 10 11 10 9 6 4 4 5 8 13 18 19 17 11 6 5 5 5 6 6 5 3 3 2 1 2 3 3 1 2 5 6 5 6 7 8 7 6 5 6
0 0 0 0 0 1 3 6 9 11 12 11 11 10 8 7 8 12 17 21 22 20 13 8 7 7 7 8 8 7 5 4 3 3 3 4 3 3 3 4 4 4 4 4 4 4 4 4 4
0 0 0 0 0 2 3 5 7 9 11 11 13 14 13 13 14 18 21 23 22 20 16 11 10 10 10 10 10 10 9 7 5 5 5 5 5 5 4 4 5 4 4 3 2 2 2 2 2
0 0 0 0 0 1 2 4 5 7 9 11 12 15 19 20 20 22 24 24 22 19 17 14 14 14 13 13 12 13 12 10 8 8 8 8 8 7 6 6 6 6 6 5 2 1 1 1 1
0 0 0 1 1 2 2 3 4 6 8 10 12 16 21 23 22 24 25 24 21 18 17 16 16 16 16 15 14 14 12 11 10 10 10 10 9 8 7 6 6 7 7 6 4 2 1 0 0
0 0 0 1 2 2 2 2 3 6 8 10 12 17 21 23 23 23 23 22 19 16 15 15 15 15 15 16 15 14 12 11 10 10 10 10 9 7 6 6 6 6 6 6 6 5 4 2 1
0 0 0 1 2 1 1 1 3 5 7 9 11 15 18 20 20 19 19 19 17 15 14 15 14 14 14 14 14 13 12 11 10 10 10 9 8 7 6 6 6 7 7 7 6 6 6 5 4
0 0 0 0 0 0 0 1 2 3 5 7 9 11 14 15 16 17 17 16 15 14 15 15 15 14 14 13 12 12 11 10 9 9 9 8 7 6 6 6 6 7 7 6 6 6 6 6 6
0 0 0 0 0 0 0 1 1 2 3 6 8 9 11 12 14 16 17 16 14 14 15 16 16 16 15 13 11 10 10 9 8 7 7 6 5 4 4 4 4 5 6 5 4 4 4 4 5
0 0 0 0 0 0 0 0 0 1 2 5 7 8 9 10 11 14 17 16 15 15 16 16 15 15 15 14 11 10 10 9 8 6 5 4 3 3 3 3 3 4 4 3 4 4 4 4 4
0 0 0 0 0 0 0 0 0 1 3 5 6 7 8 8 10 14 17 17 16 16 16 15 14 14 13 13 12 10 10 9 8 6 4 3 3 3 3 3 3 3 3 3 3 4 3 4 4
0 0 0 0 0 0 0 0 0 1 3 4 5 7 8 10 11 14 16 17 16 16 16 16 14 13 11 11 11 10 9 8 7 5 3 3 3 3 3 3 3 3 3 3 3 3 3 3 4
0 0 0 0 0 0 0 0 1 3 4 5 5 6 8 11 13 13 14 14 14 14 15 15 14 11 9 9 9 9 8 7 6 4 3 3 3 3 3 3 3 3 3 3 3 3 3 2 2
0 0 0 0 0 0 0 0 2 5 5 4 4 5 7 9 11 11 10 10 11 10 11 11 11 9 7 7 7 7 7 6 6 4 3 3 3 3 2 2 2 3 3 3 3 3 2 1 1
0 0 0 0 0 0 0 0 2 4 4 3 4 5 7 8 7 7 8 9 8 6 6 7 7 6 6 6 7 7 7 6 6 5 4 3 2 1 1 1 1 1 2 2 2 2 2 1 1
0 0 0 0 0 0 0 1 2 3 3 3 4 6 8 7 5 5 7 9 7 4 4 5 5 4 5 6 8 8 7 6 6 6 4 3 1 0 0 0 0 0 1 1 1 1 1 1 0

GEFSSGP_con_probscp_240.txt.gz
Probability
1 1 0 0 0 0 0 0 0 0 0 1 2 4 4 3 2 1 2 4 6 7 8 12 18 22 23 22 20 21 23 25 21 18 16 14 12 10 8 8 9 9 7 6 6 6 5 7 9
1 0 0 0 0 0 0 0 0 1 1 1 2 3 3 3 3 3 3 4 6 7 8 12 17 22 23 21 19 19 21 22 20 17 15 14 12 10 9 9 8 8 8 6 6 5 4 6 7
0 0 0 0 0 0 0 0 0 1 1 1 1 1 2 3 4 4 5 6 7 8 8 11 17 21 23 20 17 17 18 19 18 17 16 15 12 10 10 9 8 7 7 6 6 4 4 4 5
0 0 0 0 0 0 0 0 0 1 1 0 1 1 2 3 4 5 5 7 8 9 9 12 17 20 21 20 18 17 17 17 17 17 17 16 14 13 12 10 8 6 6 6 6 5 5 5 5
0 0 0 0 0 0 0 1 1 1 1 0 1 2 2 3 4 5 5 6 8 9 10 12 16 17 17 18 19 18 18 16 15 15 16 15 16 17 15 13 10 8 8 8 7 8 8 7 7
0 0 0 0 0 1 1 2 2 2 2 1 2 3 2 3 4 5 6 5 6 8 9 9 11 13 14 16 18 18 17 16 14 13 13 13 15 17 15 14 13 11 9 9 10 10 9 9 9
0 0 0 0 0 1 2 2 2 2 2 1 1 3 3 3 4 5 6 5 4 6 6 5 5 7 9 13 16 16 15 14 12 11 12 12 12 13 13 13 13 11 9 9 10 10 9 9 9
0 0 0 0 0 1 2 2 1 1 1 1 1 3 4 4 4 5 6 4 3 4 3 2 1 2 4 8 11 11 10 10 9 10 11 10 10 10 12 13 12 11 10 9 8 8 8 7 7
0 0 0 0 0 0 1 1 1 0 0 1 2 3 5 6 7 7 7 5 2 2 3 2 1 1 2 4 5 6 6 6 8 9 8 8 8 9 10 12 13 12 10 8 6 5 5 6 6
0 0 0 0 0 1 1 1 0 0 0 1 3 5 7 9 10 9 7 5 3 2 2 1 1 2 3 3 3 3 4 4 4 6 6 6 7 9 10 11 13 13 12 9 7 7 7 6 6
0 0 0 0 1 2 2 1 0 0 0 0 3 7 10 12 12 9 6 4 3 2 1 2 3 3 3 3 2 2 2 1 1 3 4 5 7 9 10 12 13 15 14 12 11 11 10 8 7
0 0 0 0 1 2 2 1 0 0 0 1 4 8 10 11 11 9 6 4 3 3 3 4 4 3 2 1 1 1 1 0 1 2 3 4 6 7 7 9 12 14 15 14 13 13 11 8 7
0 0 0 0 0 1 1 0 0 0 1 4 6 8 8 10 11 10 7 4 3 3 3 3 2 1 1 0 0 0 0 1 2 3 3 3 4 4 4 5 9 11 14 14 14 13 10 7 7
0 0 0 0 0 0 0 0 0 1 3 5 6 6 6 9 11 10 8 6 4 4 3 3 2 1 0 0 0 0 0 1 2 3 3 3 4 4 3 3 6 10 13 14 14 14 12 9 8
0 0 0 0 0 0 0 0 0 1 2 3 4 3 4 8 11 10 9 8 7 6 4 3 3 2 0 0 0 0 0 1 1 3 3 3 4 4 4 3 4 8 12 14 14 14 13 11 8
0 0 0 0 0 0 0 0 0 1 1 1 2 1 2 6 9 10 9 9 9 7 4 3 3 1 0 0 0 0 1 1 1 3 3 3 3 4 3 3 4 6 10 12 12 11 11 10 8
0 0 0 0 0 0 0 0 0 0 0 0 1 1 3 6 9 10 10 10 10 9 6 4 2 1 0 0 0 1 2 2 3 3 3 3 3 3 3 3 3 5 7 9 10 8 7 8 7
0 0 0 0 0 0 0 1 1 1 1 1 1 3 5 7 9 10 11 12 13 12 9 5 2 1 1 1 1 2 3 3 3 3 3 3 3 3 3 3 3 3 4 6 6 5 5 6 7
0 0 0 0 0 0 1 2 4 3 3 3 3 3 6 7 8 9 12 14 16 15 12 7 4 3 3 4 3 3 3 3 3 3 2 2 2 2 2 3 3 3 4 4 5 4 4 4 5
0 0 0 0 0 0 1 3 5 5 5 4 3 2 5 6 7 9 11 14 14 14 13 9 6 5 6 7 7 5 3 3 2 1 1 1 1 1 1 1 2 3 4 4 5 5 4 4 3
0 0 0 0 0 0 0 1 3 4 4 3 1 1 3 6 7 8 10 12 12 11 10 9 8 7 8 10 9 7 4 2 1 1 0 0 1 1 1 1 2 3 3 4 4 5 5 4 4
0 0 0 0 0 0 0 0 1 2 2 2 1 0 2 5 7 8 10 12 12 10 8 8 7 7 10 12 11 9 6 4 3 2 2 2 3 3 2 2 3 3 3 3 3 4 4 4 5
0 0 0 0 0 0 0 0 0 1 1 1 0 0 2 5 6 8 11 12 12 10 7 6 5 7 10 13 13 10 8 6 4 3 4 4 3 3 3 3 3 3 3 3 3 3 3 3 4
0 0 0 0 0 0 0 0 0 0 0 0 0 1 3 6 6 8 10 12 11 9 7 6 7 8 11 13 13 11 8 6 4 4 4 3 2 1 2 3 3 3 3 3 3 3 3 3 3
0 0 0 0 0 0 0 0 0 0 0 0 1 3 6 6 6 7 9 11 10 8 8 8 9 10 12 12 11 10 8 7 5 4 3 2 1 0 1 2 3 3 3 3 3 3 3 3 3
0 0 0 0 0 0 0 0 0 0 0 1 3 6 8 7 7 8 9 10 10 9 9 9 10 10 10 9 7 6 6 6 6 4 2 1 0 0 0 1 2 3 3 3 3 3 3 3 3
0 0 0 0 0 0 0 0 0 0 0 1 4 7 8 6 6 9 10 11 10 9 9 9 9 8 6 5 4 3 3 5 6 4 2 1 1 0 0 0 1 2 2 2 3 3 3 3 3
0 0 0 0 0 0 0 0 0 0 0 1 4 6 7 5 6 9 10 10 9 8 8 8 8 6 4 3 1 1 2 4 5 5 4 2 1 0 0 0 1 1 1 1 1 2 2 2 2
0 0 0 0 0 0 0 0 0 0 1 2 4 5 6 5 6 7 8 7 7 6 6 6 5 3 2 2 1 0 1 2 4 4 3 2 1 0 0 0 0 0 0 0 0 1 1 1 1
0 0 0 0 0 0 0 0 0 0 1 2 4 4 5 6 6 5 5 6 6 5 4 4 4 2 1 1 0 0 0 1 3 3 3 2 1 0 0 0 0 0 0 0 0 0 0 0 0

GEFSSGP_con_probscp_246.txt.gz
Probability
0 0 0 0 0 0 0 0 0 0 0 0 1 2 3 3 2 1 0 0 2 7 9 10 10 10 9 7 4 4 6 6 5 3 3 3 4 4 3 4 5 4 1 0 0 0 1 1 2
0 0 0 0 0 0 0 0 0 0 0 0 1 3 4 3 2 0 0 0 2 6 9 10 11 10 9 7 5 4 6 6 5 4 5 5 6 6 5 5 6 4 1 0 0 1 1 2 3
0 0 0 0 0 0 0 0 0 0 0 0 1 2 3 3 2 1 0 0 1 4 7 11 11 11 10 8 6 6 6 6 5 6 7 8 9 8 8 7 7 5 2 0 0 1 3 4 5
0 0 0 0 0 0 0 0 0 0 0 0 0 1 2 3 3 3 2 1 1 2 6 10 12 11 9 8 8 8 7 7 6 8 10 11 11 11 11 10 8 6 4 2 1 2 4 6 6
0 0 0 0 0 0 0 0 0 0 1 1 0 0 2 4 6 6 4 3 2 2 5 9 12 11 10 8 7 8 8 8 9 11 12 13 13 12 12 11 10 8 7 5 3 3 5 6 6
0 0 0 0 0 0 0 0 0 1 2 2 1 1 3 7 9 8 5 3 2 3 5 8 10 11 10 7 5 6 8 11 14 13 12 11 11 9 8 9 10 10 9 8 5 3 4 5 6
0 0 0 0 0 0 0 0 0 1 2 2 1 1 4 9 12 9 5 3 3 3 5 7 8 9 8 6 5 5 7 12 14 12 10 9 7 6 5 7 9 10 10 9 6 4 3 4 4
0 0 0 0 0 0 0 0 0 1 1 1 1 1 4 9 12 10 6 4 3 4 5 6 6 7 6 5 5 5 6 8 8 7 6 6 5 3 3 7 10 10 9 9 8 6 5 4 4
0 0 0 0 0 0 0 0 0 0 0 0 0 1 5 10 12 10 8 5 4 4 5 6 7 6 5 4 3 3 3 4 3 3 3 3 3 3 2 4 8 9 9 10 10 11 9 7 6
0 0 0 0 0 0 0 0 0 0 0 0 0 2 8 13 13 10 8 6 6 6 6 7 8 7 5 4 3 2 1 1 1 2 2 3 3 3 3 4 7 8 10 11 12 13 11 8 7
0 0 0 0 0 0 0 0 0 0 0 0 1 4 10 15 14 11 8 7 8 8 7 7 7 6 5 5 4 2 1 1 2 2 3 3 3 3 5 7 8 8 10 11 11 11 10 9 8
0 0 0 0 0 0 0 0 0 0 0 0 2 6 11 14 13 10 8 7 7 7 6 5 4 4 3 3 3 1 2 3 3 2 2 2 2 2 5 9 9 8 9 9 9 10 10 9 9
0 0 0 0 0 0 0 0 0 0 0 1 4 7 9 11 11 10 8 7 7 7 5 5 5 5 4 2 1 1 3 5 3 2 1 1 2 2 4 8 8 7 8 8 8 8 9 10 10
0 0 0 0 0 0 0 0 1 1 1 2 5 7 8 8 10 10 8 8 7 7 8 8 8 8 6 3 2 2 4 5 2 1 1 2 2 3 6 9 8 5 6 7 7 7 8 10 11
0 0 0 0 0 0 0 1 3 3 3 3 4 6 8 8 9 9 9 9 9 10 11 10 10 9 7 5 4 4 4 4 2 1 2 3 4 5 8 10 8 6 6 8 8 8 9 10 10
0 0 0 0 0 0 0 2 5 5 4 3 4 5 6 7 7 9 9 9 11 13 13 11 9 8 8 6 6 7 7 6 4 3 4 6 7 7 9 10 9 8 8 10 11 10 10 10 9
0 0 0 0 0 0 0 1 4 4 3 3 4 4 4 5 7 8 9 9 10 12 14 12 10 11 11 10 10 12 13 10 6 4 7 10 11 10 10 11 11 10 9 9 10 11 10 10 10
0 0 0 0 0 0 0 1 2 2 2 4 5 5 4 5 7 9 10 9 9 12 15 17 18 19 18 15 14 15 15 12 8 7 9 12 14 14 13 12 12 11 10 8 9 10 10 9 10
0 0 0 0 0 0 0 1 2 3 4 6 6 6 6 7 8 10 11 10 10 13 18 22 26 28 25 21 17 16 14 11 10 10 12 13 15 15 15 14 13 12 10 9 9 10 10 10 9
0 0 0 0 0 0 0 1 3 4 6 6 6 7 8 9 10 10 11 11 12 16 22 28 32 33 30 24 20 18 15 12 12 14 15 15 15 16 15 15 13 11 10 8 8 10 10 9 9
0 0 0 0 0 0 0 1 3 4 5 6 6 7 8 10 11 12 12 12 13 17 25 32 35 35 32 27 23 21 18 14 14 16 18 17 15 14 13 12 11 11 9 7 7 9 9 8 8
0 0 0 0 0 0 0 1 2 3 3 4 5 6 7 10 13 15 16 16 16 19 25 32 36 37 34 30 27 24 20 17 16 17 19 17 14 12 10 8 9 11 9 7 7 8 8 7 7
0 0 0 0 0 0 0 0 1 2 2 3 4 6 7 9 13 16 18 18 18 21 24 29 34 36 34 31 29 26 21 19 19 18 18 18 14 10 8 7 9 10 9 8 8 8 7 6 6
0 0 0 0 0 0 0 0 1 2 2 3 5 6 8 9 11 14 16 18 20 22 25 27 30 32 30 28 26 23 20 20 20 18 17 16 13 11 9 8 8 8 7 8 9 8 6 5 5
0 0 0 0 0 0 0 1 1 1 1 3 4 6 8 9 9 10 13 17 20 22 23 24 27 28 25 23 22 20 19 19 17 16 14 12 11 11 11 10 9 8 7 7 7 6 5 5 5
0 0 0 0 0 0 1 1 1 0 1 3 4 5 7 9 9 9 12 16 19 20 20 22 24 25 23 22 21 19 17 15 13 12 11 10 9 10 11 12 11 10 8 6 5 4 4 5 5
0 0 0 0 0 0 1 1 1 0 1 3 5 6 8 10 11 10 11 15 18 19 19 21 22 22 22 21 20 18 16 13 11 10 9 9 8 7 8 10 10 9 7 7 5 4 4 5 5
0 0 0 0 0 0 0 1 1 0 1 4 7 9 10 11 12 13 14 16 18 19 20 20 20 19 18 18 17 15 14 12 10 9 9 8 7 5 5 6 6 7 7 8 7 5 4 5 5
0 0 0 0 0 0 0 0 1 2 4 6 8 9 10 11 14 15 16 17 17 18 19 17 16 15 15 14 12 11 10 9 9 9 8 8 7 6 5 4 4 5 6 7 7 5 3 4 5
0 0 0 0 0 0 0 1 2 4 6 8 9 8 9 12 15 16 16 16 17 18 17 16 14 13 13 10 8 7 7 7 8 8 8 8 7 6 6 6 5 4 5 5 5 4 2 2 3